DLH412 EDDM-KEWR

Flight info

Callsign DLH412
Flight time N/A
Altitude 38000
Route GIVMI Y101 INBED DCT REKDI DCT LOHRE DCT ADKUV DCT BUB DCT DENUT L610 KOPUL Q63 ICTAM L179 SAWPE DCT OZZIL DCT ARPAK DCT FELCA DCT OFSOX DCT SLANY DCT TOBOR/M085F390 NATC ELSIR/N0479F400 N402C ALLEX DCT HANAA FLOSI4
Aircraft A359/H-SDE2E3GHIJ3J4J5LM1ORWXY/LB1D1

Departure

Time 2026-05-06 14:09
Airport Munich Airport (EDDM)

Arrival

Time N/A
Airport Newark Liberty International Airport (KEWR)
Time Latitude Longitude Altitude Speed Heading
2026-05-06 12:53 48.35785 11.79212 1482 ft 0 kts 263°
2026-05-06 12:56 48.35778 11.79234 1476 ft 0 kts 263°
2026-05-06 13:57 48.35780 11.79255 1476 ft 4 kts 257°
2026-05-06 13:57 48.35787 11.79294 1476 ft 4 kts 250°
2026-05-06 13:58 48.35794 11.79328 1476 ft 1 kts 263°
2026-05-06 13:58 48.35795 11.79361 1476 ft 4 kts 284°
2026-05-06 13:58 48.35788 11.79388 1476 ft 4 kts 324°
2026-05-06 13:58 48.35770 11.79399 1476 ft 4 kts 353°
2026-05-06 13:59 48.35745 11.79404 1476 ft 2 kts 353°
2026-05-06 13:59 48.35743 11.79404 1476 ft 1 kts 353°
2026-05-06 14:02 48.35751 11.79402 1482 ft 3 kts 353°
2026-05-06 14:02 48.35791 11.79396 1477 ft 8 kts 353°
2026-05-06 14:03 48.35849 11.79386 1482 ft 9 kts 353°
2026-05-06 14:03 48.35908 11.79362 1480 ft 8 kts 337°
2026-05-06 14:03 48.35966 11.79339 1488 ft 9 kts 351°
2026-05-06 14:03 48.36032 11.79326 1479 ft 10 kts 353°
2026-05-06 14:04 48.36084 11.79279 1484 ft 9 kts 285°
2026-05-06 14:04 48.36081 11.79154 1489 ft 14 kts 264°
2026-05-06 14:04 48.36067 11.78980 1482 ft 19 kts 263°
2026-05-06 14:04 48.36051 11.78761 1481 ft 23 kts 264°
2026-05-06 14:05 48.36031 11.78505 1483 ft 26 kts 263°
2026-05-06 14:05 48.36010 11.78241 1491 ft 26 kts 263°
2026-05-06 14:05 48.35989 11.77970 1478 ft 26 kts 263°
2026-05-06 14:05 48.35969 11.77708 1491 ft 20 kts 263°
2026-05-06 14:06 48.35955 11.77525 1487 ft 18 kts 263°
2026-05-06 14:06 48.35941 11.77336 1481 ft 19 kts 264°
2026-05-06 14:06 48.35928 11.77140 1484 ft 19 kts 269°
2026-05-06 14:06 48.35996 11.76989 1478 ft 14 kts 336°
2026-05-06 14:07 48.36057 11.76969 1479 ft 9 kts 353°
2026-05-06 14:07 48.36124 11.76957 1484 ft 10 kts 353°
2026-05-06 14:07 48.36196 11.76943 1487 ft 11 kts 353°
2026-05-06 14:07 48.36268 11.76931 1485 ft 9 kts 356°
2026-05-06 14:08 48.36295 11.76984 1487 ft 7 kts 86°
2026-05-06 14:08 48.36302 11.77083 1491 ft 20 kts 83°
2026-05-06 14:08 48.36343 11.77617 1488 ft 82 kts 83°
2026-05-06 14:08 48.36429 11.78748 1483 ft 135 kts 83°
2026-05-06 14:09 48.36543 11.80360 1675 ft 164 kts 83°
2026-05-06 14:09 48.36635 11.82033 2332 ft 162 kts 83°
2026-05-06 14:09 48.36827 11.83739 2818 ft 169 kts 76°
2026-05-06 14:09 48.37622 11.85037 3153 ft 179 kts 23°
2026-05-06 14:10 48.38873 11.85477 3498 ft 193 kts 11°
2026-05-06 14:10 48.40250 11.85875 3770 ft 211 kts 13°
2026-05-06 14:10 48.41772 11.85890 4013 ft 230 kts 345°
2026-05-06 14:10 48.43110 11.84475 4287 ft 253 kts 309°
2026-05-06 14:11 48.44217 11.82294 4630 ft 272 kts 309°
2026-05-06 14:11 48.45436 11.80077 5268 ft 275 kts 310°
2026-05-06 14:11 48.46709 11.77874 5906 ft 284 kts 310°
2026-05-06 14:11 48.48006 11.75610 6599 ft 285 kts 309°
2026-05-06 14:12 48.49296 11.73335 7369 ft 286 kts 309°
2026-05-06 14:12 48.50600 11.71064 8180 ft 287 kts 309°
2026-05-06 14:12 48.51924 11.68799 8971 ft 290 kts 311°
2026-05-06 14:12 48.53504 11.66849 9824 ft 296 kts 322°
2026-05-06 14:13 48.55239 11.65130 10364 ft 312 kts 326°
2026-05-06 14:13 48.57165 11.63421 10731 ft 330 kts 328°
2026-05-06 14:13 48.59227 11.61703 11100 ft 347 kts 328°
2026-05-06 14:13 48.61408 11.59928 11429 ft 363 kts 329°
2026-05-06 14:14 48.63676 11.58083 11794 ft 377 kts 328°
2026-05-06 14:14 48.66006 11.56172 12340 ft 384 kts 328°
2026-05-06 14:14 48.68369 11.54219 12976 ft 389 kts 327°
2026-05-06 14:14 48.70751 11.52234 13633 ft 393 kts 327°
2026-05-06 14:15 48.73152 11.50220 14215 ft 397 kts 327°
2026-05-06 14:15 48.75582 11.48173 14868 ft 401 kts 327°
2026-05-06 14:15 48.78000 11.46129 15494 ft 406 kts 327°
2026-05-06 14:15 48.80479 11.44034 16072 ft 410 kts 327°
2026-05-06 14:16 48.82982 11.41918 16655 ft 414 kts 327°
2026-05-06 14:16 48.85508 11.39783 17232 ft 418 kts 327°
2026-05-06 14:16 48.88055 11.37627 17803 ft 422 kts 327°
2026-05-06 14:16 48.90628 11.35446 18322 ft 425 kts 327°
2026-05-06 14:17 48.93228 11.33240 18821 ft 429 kts 327°
2026-05-06 14:17 48.95846 11.31014 19341 ft 434 kts 326°
2026-05-06 14:17 48.98456 11.28794 19863 ft 437 kts 326°
2026-05-06 14:17 49.01122 11.26524 20431 ft 441 kts 326°
2026-05-06 14:18 49.03816 11.24226 20983 ft 445 kts 327°
2026-05-06 14:18 49.06527 11.21913 21540 ft 448 kts 327°
2026-05-06 14:18 49.09258 11.19579 22079 ft 452 kts 327°
2026-05-06 14:18 49.12012 11.17221 22633 ft 456 kts 326°
2026-05-06 14:19 49.14713 11.14906 23140 ft 459 kts 327°
2026-05-06 14:19 49.17510 11.12506 23623 ft 462 kts 326°
2026-05-06 14:19 49.20279 11.10127 24098 ft 465 kts 326°
2026-05-06 14:19 49.23103 11.07697 24586 ft 467 kts 326°
2026-05-06 14:20 49.25941 11.05253 25062 ft 469 kts 326°
2026-05-06 14:20 49.28795 11.02791 25537 ft 472 kts 326°
2026-05-06 14:20 49.31659 11.00316 26002 ft 474 kts 326°
2026-05-06 14:20 49.34537 10.97826 26461 ft 477 kts 326°
2026-05-06 14:21 49.37322 10.95089 26890 ft 475 kts 319°
2026-05-06 14:21 49.39816 10.91799 27330 ft 472 kts 310°
2026-05-06 14:21 49.42048 10.88189 27747 ft 472 kts 307°
2026-05-06 14:21 49.44177 10.84339 28185 ft 473 kts 304°
2026-05-06 14:22 49.46244 10.80380 28593 ft 476 kts 303°
2026-05-06 14:22 49.48295 10.76370 28999 ft 478 kts 303°
2026-05-06 14:22 49.50356 10.72337 29388 ft 481 kts 303°
2026-05-06 14:22 49.52436 10.68294 29721 ft 484 kts 303°
2026-05-06 14:23 49.54545 10.64225 30046 ft 487 kts 304°
2026-05-06 14:23 49.56665 10.60158 30340 ft 489 kts 304°
2026-05-06 14:23 49.58807 10.56061 30674 ft 490 kts 304°
2026-05-06 14:23 49.60912 10.52038 31112 ft 488 kts 304°
2026-05-06 14:24 49.63042 10.47965 31547 ft 487 kts 303°
2026-05-06 14:24 49.65160 10.43904 31948 ft 486 kts 303°
2026-05-06 14:24 49.67244 10.39805 32350 ft 483 kts 301°
2026-05-06 14:24 49.69174 10.35583 32766 ft 480 kts 298°
2026-05-06 14:25 49.71014 10.31303 33175 ft 478 kts 297°
2026-05-06 14:25 49.72828 10.27007 33616 ft 476 kts 297°
2026-05-06 14:25 49.74613 10.22792 33971 ft 474 kts 297°
2026-05-06 14:25 49.76435 10.18536 34223 ft 475 kts 298°
2026-05-06 14:26 49.78275 10.14281 34414 ft 477 kts 298°
2026-05-06 14:26 49.80129 10.10023 34648 ft 478 kts 299°
2026-05-06 14:26 49.81997 10.05749 34892 ft 478 kts 299°
2026-05-06 14:26 49.83861 10.01487 35095 ft 479 kts 299°
2026-05-06 14:27 49.85730 9.97210 35334 ft 479 kts 300°
2026-05-06 14:27 49.87595 9.92935 35560 ft 479 kts 300°
2026-05-06 14:27 49.89459 9.88651 35773 ft 480 kts 300°
2026-05-06 14:27 49.91324 9.84356 35987 ft 480 kts 300°
2026-05-06 14:28 49.93189 9.80054 36190 ft 481 kts 300°
2026-05-06 14:28 49.95028 9.75801 36386 ft 481 kts 300°
2026-05-06 14:28 49.96893 9.71485 36582 ft 481 kts 300°
2026-05-06 14:28 49.98756 9.67163 36772 ft 482 kts 300°
2026-05-06 14:29 50.00619 9.62836 36964 ft 482 kts 300°
2026-05-06 14:29 50.02482 9.58501 37153 ft 482 kts 300°
2026-05-06 14:29 50.04340 9.54167 37334 ft 483 kts 300°
2026-05-06 14:29 50.06033 9.49654 37493 ft 480 kts 292°
2026-05-06 14:30 50.07291 9.44883 37646 ft 476 kts 284°
2026-05-06 14:30 50.08282 9.39948 37757 ft 477 kts 283°
2026-05-06 14:30 50.10065 9.30011 37761 ft 481 kts 282°
2026-05-06 14:31 50.11792 9.19951 37763 ft 480 kts 282°
2026-05-06 14:31 50.13527 9.09890 37764 ft 481 kts 282°
2026-05-06 14:32 50.15235 9.00022 37767 ft 481 kts 282°
2026-05-06 14:32 50.16977 8.89940 37771 ft 482 kts 282°
2026-05-06 14:33 50.18700 8.79904 37770 ft 482 kts 282°
2026-05-06 14:33 50.20425 8.69801 37777 ft 482 kts 281°
2026-05-06 14:34 50.22142 8.59679 37775 ft 482 kts 281°
2026-05-06 14:34 50.23851 8.49545 37777 ft 482 kts 281°
2026-05-06 14:35 50.25550 8.39409 37788 ft 482 kts 281°
2026-05-06 14:35 50.27230 8.29334 37790 ft 482 kts 281°
2026-05-06 14:36 50.28909 8.19202 37791 ft 482 kts 281°
2026-05-06 14:36 50.30581 8.09048 37794 ft 482 kts 281°
2026-05-06 14:37 50.32232 7.98960 37802 ft 482 kts 281°
2026-05-06 14:37 50.33886 7.88807 37804 ft 482 kts 281°
2026-05-06 14:38 50.35532 7.78632 37809 ft 482 kts 281°
2026-05-06 14:38 50.37168 7.68454 37812 ft 482 kts 281°
2026-05-06 14:39 50.38796 7.58268 37814 ft 482 kts 281°
2026-05-06 14:39 50.40402 7.48153 37817 ft 482 kts 281°
2026-05-06 14:40 50.42016 7.37930 37813 ft 483 kts 281°
2026-05-06 14:40 50.43622 7.27686 37818 ft 483 kts 281°
2026-05-06 14:41 50.45219 7.17439 37803 ft 484 kts 281°
2026-05-06 14:41 50.46808 7.07180 37817 ft 484 kts 281°
2026-05-06 14:42 50.48377 6.96994 37815 ft 484 kts 281°
2026-05-06 14:42 50.49951 6.86708 37819 ft 484 kts 281°
2026-05-06 14:43 50.51559 6.76451 37831 ft 485 kts 282°
2026-05-06 14:43 50.53446 6.66275 37841 ft 485 kts 284°
2026-05-06 14:44 50.55366 6.56176 37835 ft 485 kts 283°
2026-05-06 14:45 50.58173 6.40900 37835 ft 484 kts 283°
2026-05-06 14:45 50.60005 6.30725 37833 ft 483 kts 283°
2026-05-06 14:46 50.61827 6.20536 37842 ft 483 kts 283°
2026-05-06 14:46 50.63627 6.10423 37848 ft 483 kts 283°
2026-05-06 14:47 50.65431 6.00239 37870 ft 483 kts 283°
2026-05-06 14:47 50.67228 5.90038 37873 ft 483 kts 283°
2026-05-06 14:48 50.69002 5.79908 37876 ft 483 kts 283°
2026-05-06 14:48 50.70779 5.69704 37884 ft 483 kts 283°
2026-05-06 14:49 50.72551 5.59467 37885 ft 483 kts 283°
2026-05-06 14:49 50.74312 5.49236 37885 ft 484 kts 283°
2026-05-06 14:50 50.76066 5.38981 37885 ft 484 kts 283°
2026-05-06 14:50 50.77813 5.28712 37883 ft 484 kts 283°
2026-05-06 14:51 50.79537 5.18516 37886 ft 484 kts 283°
2026-05-06 14:51 50.81259 5.08272 37878 ft 483 kts 283°
2026-05-06 14:52 50.82965 4.98063 37882 ft 483 kts 283°
2026-05-06 14:52 50.84670 4.87800 37885 ft 483 kts 283°
2026-05-06 14:53 50.86356 4.77592 37882 ft 482 kts 282°
2026-05-06 14:53 50.88043 4.67313 37884 ft 482 kts 282°
2026-05-06 14:54 50.89780 4.57068 37882 ft 483 kts 287°
2026-05-06 14:54 50.92677 4.47454 37883 ft 485 kts 298°
2026-05-06 14:55 50.96121 4.38336 37883 ft 486 kts 300°
2026-05-06 14:55 50.99656 4.29210 37885 ft 486 kts 300°
2026-05-06 14:56 51.03174 4.20057 37884 ft 485 kts 299°
2026-05-06 14:56 51.06664 4.10887 37886 ft 485 kts 299°
2026-05-06 14:57 51.10120 4.01754 37890 ft 485 kts 299°
2026-05-06 14:57 51.13584 3.92568 37896 ft 484 kts 299°
2026-05-06 14:58 51.17035 3.83383 37900 ft 484 kts 299°
2026-05-06 14:58 51.20484 3.74175 37902 ft 484 kts 299°
2026-05-06 14:59 51.23498 3.64693 37911 ft 481 kts 287°
2026-05-06 14:59 51.25189 3.54413 37913 ft 479 kts 281°
2026-05-06 15:00 51.26570 3.44003 37917 ft 479 kts 280°
2026-05-06 15:00 51.27902 3.33581 37925 ft 479 kts 280°
2026-05-06 15:01 51.29211 3.23220 37937 ft 479 kts 280°
2026-05-06 15:01 51.30528 3.12799 37932 ft 478 kts 280°
2026-05-06 15:02 51.31845 3.02376 37936 ft 478 kts 280°
2026-05-06 15:02 51.32934 2.93711 37934 ft 478 kts 280°
2026-05-06 15:03 51.34236 2.83291 37943 ft 478 kts 279°